Flag for France Weather past 2 weeks in Saint-Étienne, France

Now
37 °F

Scattered clouds.


Feels Like: 32 °F
Forecast: 31 / 41 °F
Wind: 7 mph from Northwest

Location: St-Etienne Boutheon

Current Time: Jan 30, 2015 at 11:05:21 AM

Latest Report: Jan 30, 2015 at 10:30 AM


Visibility: N/A

Pressure: 29.21 "Hg

Humidity: 60%

Dew point: 25 °F

Location of Saint-ÉtienneLocation

Historic Weather in Saint-Étienne — Graph

°F

Saint-Étienne temperature yesterday

Maximum temperature yesterday: 46 °F (at 12:30 AM)
Minimum temperature yesterday: 39 °F (at 5:30 AM)
Average temperature yesterday: 42 °F

Past Weeks' High & Low Weather Summary

 TemperatureHumidityPressure
High57 °F (Jan 15, 2:00 PM)100% (Jan 20, 1:00 AM)30.42 "Hg (Jan 20, 1:00 AM)
Low25 °F (Jan 18, 7:30 AM)51% (Jan 15, 2:00 PM)29.06 "Hg (Jan 29, 8:30 PM)
Average37 °F85%29.96 "Hg
* Reported Jan 15 10:00 AM — Jan 30 10:00 AM, Saint-Étienne, Weather by CustomWeather, © 2014

Note: Actual official high and low records may vary slightly from our data, if they occured in-between our weather recording intervals... More about our weather records

Advertising

Saint-Étienne weather history for previous 24 hours

 ConditionsComfort  
Time TempWeatherWind HumidityBarometerVisibility
10:00 AM
Jan 30
36 °FScattered clouds.7 mph65%29.21 "HgN/A
9:30 AM34 °FPartly sunny.3 mph70%29.21 "HgN/A
9:00 AM32 °FPartly sunny.3 mph80%29.21 "HgN/A
8:30 AM32 °FScattered clouds.5 mph80%29.21 "HgN/A
8:00 AM32 °FPassing clouds.2 mph75%29.21 "HgN/A
7:30 AM32 °FPassing clouds.3 mph75%29.18 "HgN/A
7:00 AM34 °FPassing clouds.8 mph70%29.18 "HgN/A
6:30 AM34 °FPassing clouds.7 mph70%29.18 "HgN/A
6:00 AM34 °FPassing clouds.8 mph70%29.18 "HgN/A
5:30 AM34 °FPassing clouds.9 mph70%29.18 "HgN/A
5:00 AM36 °FPassing clouds.8 mph65%29.18 "HgN/A
4:30 AM36 °FMostly cloudy.9 mph70%29.18 "HgN/A
4:00 AM36 °FMostly cloudy.6 mph81%29.15 "HgN/A
3:30 AM36 °FPartly cloudy.7 mph75%29.15 "HgN/A
3:00 AM36 °FPartly cloudy.6 mph87%29.12 "HgN/A
2:30 AM37 °FPartly cloudy.14 mph81%29.12 "HgN/A
2:00 AM39 °FRain. Mostly cloudy.17 mph75%29.09 "HgN/A
1:30 AM43 °FPartly cloudy.10 mph61%29.09 "HgN/A
1:00 AM41 °FMostly cloudy.3 mph76%29.09 "HgN/A
12:30 AM41 °FPartly cloudy.6 mph81%29.09 "HgN/A
12:00 AM43 °FMostly cloudy.9 mph71%29.06 "HgN/A
11:30 PM
Jan 29
43 °FLight rain. Mostly cloudy.3 mph76%29.09 "HgN/A
11:00 PM41 °FPassing clouds.6 mph81%29.06 "HgN/A
10:30 PM41 °FPassing clouds.8 mph81%29.06 "HgN/A
10:00 PM43 °FPassing clouds.7 mph81%29.06 "HgN/A
9:30 PM41 °FLight rain. Mostly cloudy.9 mph87%29.06 "HgN/A
9:00 PM41 °FLight rain. Passing clouds.14 mph87%29.06 "HgN/A
8:30 PM41 °FLight rain. Clear.18 mph81%29.06 "HgN/A
8:00 PM41 °FLight rain. Mostly cloudy.16 mph87%29.12 "HgN/A
7:30 PM43 °FLight rain. Mostly cloudy.14 mph81%29.15 "HgN/A
7:00 PM43 °FLight rain. Mostly cloudy.13 mph76%29.15 "HgN/A
6:30 PM43 °FOvercast.10 mph76%29.18 "HgN/A
6:00 PM43 °FPartly cloudy.10 mph76%29.21 "HgN/A
5:30 PM43 °FBroken clouds.10 mph76%29.24 "HgN/A
5:00 PM45 °FBroken clouds.12 mph71%29.27 "HgN/A
4:30 PM45 °FPartly sunny.14 mph71%29.30 "HgN/A
4:00 PM45 °FPartly sunny.14 mph71%29.33 "HgN/A
3:30 PM45 °FPartly sunny.10 mph76%29.36 "HgN/A
3:00 PM45 °FBroken clouds.12 mph71%29.39 "HgN/A
2:30 PM45 °FBroken clouds.12 mph71%29.42 "HgN/A
2:00 PM45 °FBroken clouds.12 mph76%29.45 "HgN/A
1:30 PM45 °FBroken clouds.10 mph76%29.47 "HgN/A
1:00 PM45 °FLight rain. Broken clouds.12 mph76%29.50 "HgN/A
12:30 PM45 °FLight rain. Broken clouds.10 mph76%29.50 "HgN/A
12:00 PM43 °FBroken clouds.12 mph81%29.53 "HgN/A
11:30 AM41 °FBroken clouds.13 mph81%29.56 "HgN/A
11:00 AM41 °FLight rain. More clouds than sun.10 mph87%29.59 "HgN/A
Weather by CustomWeather, © 2014

See weather overviewHow to use our weather pages